FENGYUN 1C DEB, 30146

Orbit data source: Space-Track

FENGYUN 1C DEB, 30146 is space debris in SSO originally from a launch on Mon, 10 May 1999 UTC launched from the Taiyaun Space Center, China (TSC). Fengyun 1C debris stems from the Chinese weather satellite Fengyun-1C, which was intentionally destroyed by a Chinese anti-satellite missile in 2007. This event dramatically increased the amount of space debris, with thousands of trackable fragments posing hazards to satellites and human spaceflight. The Fengyun 1C debris cloud has become a focal point in discussions about space sustainability and the need for international regulations to prevent the creation of new debris.

Loading next visibility...
Identifier
30146, 1999-025TB
Orbit
SSO
Country
Flag of CNCN / PRC
Related business
Manufacturer
Unknown
Mission
Spacecraft
Bus & Motor
Unknown
Mass
Unknown
Launch date (UTC)
1999-05-10 (27 years ago)
Launch vehicle
Unknown
Launch site
Taiyaun Space Center, China (TSC)
Object type
Payload
Rocket body
Debris
Shape & HBR
Unknown shape, 0.1 m
Radar Cross Section
Medium (>0.1 m² and <1 m²)

Expand to show TLE details & history
Last TLE update: 22 hours ago

TLE from 22 hours ago
0 FENGYUN 1C DEB
1 30146U 99025TB  26171.38356389  .00000421  00000-0  34669-3 0  9999
2 30146  98.0444 309.4379 0176155 315.9669  64.1782 13.86889920980463
Epoch: 2026-06-20T09:12Z
TLE epoch observation values (Epoch: 2026-06-20T09:12:19.920Z)
Latitude
21.76481°
Longitude
-100.46182°
Altitude
887.896 km
Speed
7.437 km/s
True Right ascension
20h 24m 52s
True Declination
21° 38' 56"
Sunlit
Object was in full shadow at epoch
Visualization orbit readout
Latitude
Unknown
Longitude
Unknown
Altitude
Unknown
Speed
Unknown
Apparent Right ascension
Unknown
Apparent Declination
Unknown
Sunlit
N/A
Visualization observer readout
Local Sidereal Time
18:38:45
Azimuth
Unknown
Elevation
Unknown
Doppler factor
Unknown
Orbital elements
Apogee altitude
1,065.577 km
Perigee altitude
807.867 km
Semi-major axis
7,314.859 km
Eccentricity
0.01762
Inclination
98.0444°
RAAN
309.4379°
Arg. of periapsis
315.9669°
True anomaly
66.01251°
Mean anomaly
64.1782°
Eccentric anomaly
65.09363°
Mean motion
3.46924 °/min
Orbital period
103.77 mins
BSTAR
0.00034669
Loading maneuver chart data...
Computing Atmospheric mass density...

Documentation

Showing up to 5 results
|